Location: Hauterive
(46.7644°N, 7.1175°E)
Time: 09:20:13
(UTC+00:00)

Daily predictions for brighter satellites

Satellite Brightness Start Highest point End
(mag) Time Altitude Azimuth Time Altitude Azimuth Time Altitude Azimuth
Resurs 1-3 3.8 19:19:57 10° SSE 19:24:13 54° ENE 19:28:31 10° N
FREGAT/IRIS 3.0 19:22:49 10° S 19:25:24 54° W 19:28:01 10° NNW
Meteor 1-4 Rocket 4.1 19:22:54 10° NNE 19:25:27 19° ENE 19:27:59 10° ESE
CZ-2C R/B 4.1 19:21:44 10° NNE 19:26:08 41° E 19:30:24 10° S
SL-16 R/B 4.2 19:25:34 10° N 19:28:51 15° NE 19:32:07 10° ENE
Cosmos 1140 Rocket 4.2 19:24:46 10° SSE 19:29:24 33° E 19:34:03 10° NE
COSMOS 2406 3.2 19:25:18 10° SSW 19:31:01 71° ESE 19:36:44 10° NNE
CENTAUR R/B 4.0 19:29:08 10° ESE 19:31:02 12° E 19:33:01 10° E
SL-08 R/B 4.5 19:27:10 10° S 19:33:23 83° E 19:39:33 10° N
Cosmos 1805 Rocket 3.6 19:29:27 10° S 19:33:48 61° E 19:38:13 10° NNE
H-2A R/B 3.8 19:30:29 10° SSW 19:35:06 33° W 19:39:38 10° NNW
Cosmos 2369 3.9 19:31:11 10° NNW 19:36:53 62° ENE 19:42:33 10° SE
USA 186 3.6 19:36:41 10° SSW 19:38:29 20° W 19:40:16 10° NW
Cosmos 2082 Rocket 2.8 19:34:59 10° S 19:40:07 36° ESE 19:45:15 10° NE
Cosmos 2278 4.1 19:39:42 10° NNW 19:45:17 50° ENE 19:50:18 12° SE
Shenzhou-11 Module 3.0 19:43:31 10° WSW 19:45:28 22° SSW 19:46:45 14° SSE
CZ-2C R/B 2.7 19:41:53 10° NNE 19:47:04 79° WNW 19:52:16 10° SSW
Intercosmos 25 3.2 19:42:45 10° N 19:47:04 71° ENE 19:50:20 10° SSE
FALCON 9 DEB 3.4 19:45:20 10° SW 19:48:41 44° SE 19:52:02 10° ENE
Cosmos 389 Rocket 2.8 19:46:28 10° NNW 19:49:54 66° W 19:53:20 10° S
Cosmos 2322 Rocket 4.1 19:46:17 10° N 19:50:01 17° NE 19:53:44 10° E
DMSP B5D2-2 4.3 19:45:56 10° NNE 19:51:11 78° WNW 19:56:24 10° SSW
Cosmos 220 Rocket 4.2 19:47:41 10° NNW 19:51:53 68° WSW 19:56:04 10° SSE
Cosmos 1862 3.6 19:49:00 10° SSW 19:53:02 71° W 19:57:06 10° N
Cosmos 1633 Rocket 3.6 19:49:47 10° SSE 19:53:54 40° E 19:58:03 10° NNE
SJ-6B 4.4 19:50:30 10° SSW 19:54:16 36° W 19:58:00 10° NNW
OBJECT-B 1.5 19:53:34 10° S 19:56:47 55° W 20:00:03 10° NNW
Lacrosse 5 3.1 19:52:25 10° NW 19:57:05 35° NNE 20:01:44 10° E
Cosmos 614 Rocket 4.1 19:52:06 10° SSW 19:57:16 85° WNW 20:02:32 10° NNE
IGS 5A 4.2 19:54:58 15° SE 19:57:58 36° ENE 20:01:46 10° N
SPOT 3 Rocket 3.8 19:54:54 10° S 20:00:05 74° WSW 20:05:19 10° NNW
NOSS 3-2 (A) 3.9 19:56:49 10° S 20:01:51 34° ESE 20:07:28 10° NE
SWAS 4.4 19:58:01 10° SSW 20:02:19 75° ESE 20:06:39 10° NNE
Cosmos 2360 Rocket 4.4 19:59:43 10° N 20:02:28 13° NE 20:05:11 10° ENE
Cosmos 1867 3.8 19:57:49 10° S 20:02:57 46° ESE 20:08:10 10° NE
USA 267 3.3 19:59:40 10° ENE 20:06:07 58° SE 20:12:33 10° SW
Cosmos 1707 Rocket 3.5 20:01:45 10° N 20:06:08 88° E 20:10:21 11° S
Cosmos 676 Rocket 4.4 20:01:10 10° S 20:06:09 43° ESE 20:11:12 10° NE
BREEZE-M DEB (TANK) 2.6 20:06:10 10° W 20:09:12 47° N 20:10:42 14° ENE
NOSS 3-2 (C) 4.3 20:04:54 10° SSE 20:09:20 24° ESE 20:14:12 10° ENE
Terra 3.5 20:08:56 14° E 20:11:28 20° ENE 20:14:54 10° NNE
Cosmos 1980 Rocket 2.3 20:06:45 10° NNW 20:12:27 70° ENE 20:16:37 19° SE
ATLAS 5 CENTAUR R/B 3.7 20:08:43 10° NW 20:14:01 36° WSW 20:20:00 10° S
Cosmos 1238 Rocket 3.4 20:14:50 22° E 20:15:01 22° E 20:17:24 10° NE
Genesis I 3.2 20:11:10 10° NW 20:15:04 71° NE 20:17:19 24° SE
Cosmos 1437 Rocket 4.5 20:13:27 10° NNE 20:16:04 17° ENE 20:17:12 16° E
Cosmos 1470 Rocket 4.0 20:15:47 18° SSE 20:18:37 41° E 20:22:45 10° NNE
deb Kosmos-1763 3.9 20:15:09 10° S 20:18:43 64° ESE 20:22:21 10° NNE
Meteor 1-27 Rocket 4.0 20:13:07 10° NNW 20:19:02 74° W 20:24:57 10° S
ERS-1 Rocket 3.8 20:16:10 19° ESE 20:19:05 36° ENE 20:23:39 10° N
Resurs 01 Rocket 2.0 20:14:45 10° S 20:19:08 63° WSW 20:23:33 10° NNW
Cosmos 921 Rocket 3.5 20:15:42 10° N 20:19:44 41° ENE 20:21:49 24° ESE
Okean 1 4.5 20:16:16 10° NNE 20:19:47 28° ENE 20:21:16 22° ESE
Cosmos 1184 Rocket 2.9 20:20:53 23° SSE 20:22:40 53° E 20:25:55 10° NNE
Cosmos 405 Rocket 3.6 20:22:44 25° ESE 20:23:30 28° E 20:26:44 10° NNE
USA 276 3.2 20:20:43 10° WNW 20:23:47 44° N 20:26:24 13° ENE
Cosmos 1934 Rocket 4.0 20:18:58 10° S 20:25:18 81° E 20:31:43 10° N
Cosmos 1833 Rocket 3.1 20:20:46 10° SW 20:26:20 65° WNW 20:31:57 10° NNE
Cosmos 1697 Rocket 3.3 20:21:40 10° NW 20:27:07 53° WSW 20:31:56 13° S
Meteor 2-20 Rocket 4.4 20:25:09 10° N 20:31:21 83° E 20:36:12 17° SSE
Cosmos 1862 Rocket 3.5 20:28:32 10° N 20:33:03 83° E 20:35:46 23° SSE
Sich 1 4.2 20:28:58 10° SSW 20:33:12 44° WNW 20:37:29 10° N
X-37B 0.6 20:30:14 10° WSW 20:33:21 60° S 20:34:11 41° ESE
GP-B 3.0 20:29:24 10° N 20:33:52 76° E 20:36:51 21° S
SL-4 R/B 1.9 20:31:05 10° WSW 20:35:03 76° NNW 20:38:44 10° ENE
SPOT 5 3.3 20:33:39 26° ESE 20:35:24 38° ENE 20:39:28 10° N
H-2A R/B 3.5 20:32:33 10° NNE 20:36:41 83° WNW 20:40:49 10° SSW
Cosmos 1954 Rocket 3.9 20:32:39 10° SSW 20:37:58 78° ESE 20:43:18 10° NNE
Spot 2 Rocket 3.5 20:37:06 21° SSE 20:40:36 86° WSW 20:45:45 10° NNW
USA 234 3.3 20:37:04 21° ESE 20:41:43 76° NNE 20:48:16 10° NW
Cosmos 1515 4.5 20:41:36 10° N 20:45:09 34° ENE 20:45:49 32° E
ATLAS 3B R/B 4.0 20:48:21 17° E 20:48:21 17° E 20:51:39 10° ENE
SAR-Lupe-2 3.9 20:47:57 10° NNE 20:51:23 43° E 20:51:30 42° ESE
CZ-4B DEB 4.3 20:52:09 55° SE 20:52:45 71° ENE 20:56:05 10° N
Cosmos 44 4.5 20:49:49 10° NNW 20:54:16 34° NE 20:56:43 22° E
Meteor 2-4 Rocket 4.4 20:49:40 10° N 20:54:59 40° ENE 20:57:01 29° ESE
CARTOSAT-1 3.5 20:53:39 38° SSE 20:55:13 72° ENE 20:59:34 10° N
Iridium 4 Rocket 4.4 20:55:21 23° E 20:55:29 23° E 20:58:51 10° NNE
Meteor 1-18 Rocket 4.2 20:51:14 10° N 20:56:50 72° ENE 20:59:27 32° SSE
USA 238 DEB 3.5 20:52:10 10° SSW 20:58:47 79° SE 21:05:43 10° NE
USA 238 3.5 20:52:18 10° SSW 20:58:54 78° SE 21:05:49 10° NE
Landsat 7 4.3 20:56:40 22° S 20:59:35 56° W 21:04:17 10° NNW
Cosmos 1933 Rocket 3.4 20:57:38 33° S 20:59:36 78° E 21:04:03 10° NNE
Meteor 1-4 Rocket 4.2 20:57:31 10° NNW 21:00:31 27° W 21:02:28 16° SW
Meteor 1-25 Rocket 4.2 21:00:53 15° SSW 21:05:35 80° WNW 21:11:15 10° N
Aureole 2 4.4 21:07:16 67° SE 21:07:30 70° ESE 21:11:27 10° NNE
Cosmos 1763 Rocket 3.5 21:04:21 10° NNW 21:09:42 74° ENE 21:11:34 41° SE
Cosmos 1869 Rocket 4.1 21:10:00 40° E 21:10:15 40° E 21:14:26 10° NNE
SL-16 R/B 2.3 21:08:27 10° NNW 21:14:08 65° ENE 21:16:10 39° SE
Cosmos 2100 Rocket 4.2 21:12:40 36° SE 21:14:47 51° E 21:20:43 10° NNE
Cosmos 1605 Rocket 4.2 21:10:28 13° SSW 21:16:02 67° W 21:22:07 10° N
CENTAUR R/B 2.4 21:14:34 12° SSW 21:20:02 68° ESE 21:26:59 10° NE
Cosmos 2219 Rocket 4.3 21:16:42 10° N 21:20:30 18° NE 21:23:54 11° E
Cosmos 1703 Rocket 3.4 21:16:42 10° N 21:21:05 86° WSW 21:21:59 56° S
SPOT 1/Viking Rocket 4.3 21:18:20 24° SSW 21:21:10 47° W 21:26:15 10° NNW
Cosmos 2082 Rocket 3.5 21:18:46 10° SW 21:24:08 41° NW 21:29:30 10° NNE
FALCON 9 DEB 4.4 21:22:23 10° W 21:25:45 42° NNW 21:28:47 12° NE
Cosmos 2173 Rocket 4.0 21:25:03 41° SSE 21:27:03 60° E 21:33:05 10° NNE
Okean 3 4.0 21:25:20 10° N 21:29:27 43° ENE 21:29:33 43° E
Cosmos 2242 Rocket 4.2 21:26:30 10° NNW 21:30:49 50° W 21:32:08 37° SW
Okean 1-7 3.1 21:29:11 10° NNW 21:33:31 72° W 21:34:12 58° SSW
Cosmos 2322 Rocket 2.2 21:29:20 10° NNW 21:35:04 77° ENE 21:36:38 49° SE
SL-27 R/B 3.5 21:38:44 36° NNE 21:38:44 36° NNE 21:40:52 10° NNE
Lacrosse 5 1.7 21:35:23 10° NW 21:40:28 79° SW 21:41:15 63° SSE
Cosmos 1850 Rocket 4.1 21:41:28 29° SSW 21:44:12 73° WNW 21:49:30 10° NNE
Cosmos 1733 Rocket 4.3 21:46:13 28° ENE 21:46:13 28° ENE 21:49:15 10° NNE
Cosmos 2016 Rocket 4.2 21:44:23 46° SE 21:45:51 57° E 21:52:05 10° NNE
Cosmos 1459 Rocket 3.9 21:44:00 44° S 21:46:12 81° E 21:52:36 10° N
Cosmos 2360 Rocket 2.5 21:42:14 10° NNW 21:47:49 55° ENE 21:49:10 44° ESE
Terra 2.2 21:47:50 47° SW 21:48:48 56° W 21:53:31 10° NNW
USA 267 3.8 21:42:46 10° NE 21:49:08 58° NNW 21:55:31 10° WSW
Cosmos 1500 3.4 21:51:07 65° NNW 21:51:07 65° NNW 21:54:26 10° N
NOSS 3-2 (A) 4.2 21:46:43 10° WSW 21:52:23 52° NW 21:58:56 10° NE
Cosmos 1437 Rocket 3.7 21:48:57 10° NNW 21:52:29 37° W 21:52:35 37° W
Cosmos 2221 Rocket 3.7 21:48:34 10° N 21:52:58 62° ENE 21:52:58 62° ENE
Thor Agena Rocket 4.4 21:49:05 10° NNE 21:53:15 35° E 21:53:15 35° E
COSMOS 2428 4.3 21:51:04 10° N 21:55:50 26° NE 21:58:12 20° E
Cosmos 1980 Rocket 4.1 21:51:52 10° NW 21:55:50 20° W 21:58:24 15° SW
Cosmos 2061 Rocket 4.0 21:54:51 52° SSE 21:56:13 67° E 22:02:22 10° NNE
Cosmos 540 Rocket 3.3 21:51:57 10° NNW 21:57:10 86° WSW 21:57:48 69° S
ERS-1 Rocket 4.3 21:56:10 25° SW 21:57:54 32° W 22:02:24 10° NNW
ATLAS 5 CENTAUR R/B 2.4 21:55:14 10° NW 21:58:07 66° NE 21:58:55 54° E
Meteor 1-11 Rocket 3.7 21:58:35 58° SE 21:59:13 62° E 22:04:54 10° NNE
NOSS 3-2 (C) 3.7 21:53:45 10° SW 21:59:29 69° NW 22:06:08 10° NE
USA 276 4.2 21:57:11 10° WNW 21:58:45 26° WNW 21:58:45 26° WNW
Cosmos 967 Rocket 4.4 21:53:59 10° NW 22:00:24 84° NE 22:01:58 54° SE
Cosmos 1666 3.7 22:03:20 38° NNE 22:03:20 38° NNE 22:05:51 10° NNE
Cosmos 841 Rocket 3.4 21:58:19 10° NNW 22:03:34 75° WSW 22:04:10 66° SSW
BREEZE-M DEB (TANK) 3.7 22:00:13 10° WNW 22:04:02 75° NNE 22:18:10 10° E
Cosmos 2346 Rocket 4.3 21:59:48 10° N 22:05:53 83° E 22:07:07 59° SSE
Cosmos 1802 Rocket 4.0 22:08:28 48° SSW 22:10:27 83° W 22:16:51 10° N
Cosmos 2084 Rocket 3.7 22:12:58 64° NW 22:13:02 64° NW 22:17:19 10° NE
SPOT 5 4.4 22:12:53 21° WSW 22:13:40 22° W 22:17:05 10° NW
Cosmos 2237 Rocket 4.5 22:10:06 10° N 22:13:42 17° NE 22:17:17 10° E
SL-4 R/B 3.1 22:11:26 10° WNW 22:14:58 37° N 22:15:11 37° N
Cosmos 2333 Rocket 3.1 22:09:41 10° NNW 22:15:07 40° NE 22:16:34 34° E
Cosmos 1271 Rocket 4.5 22:12:18 10° NNE 22:14:37 24° NE 22:14:37 24° NE
Cosmos 2233 Rocket 4.2 22:18:13 52° ESE 22:18:56 54° E 22:25:06 10° NNE
Cosmos 1814 Rocket 4.0 22:16:11 10° NNW 22:21:20 65° WSW 22:21:36 64° SW
Cosmos 1378 Rocket 4.3 22:19:26 10° N 22:23:11 44° NE 22:23:11 44° NE
Cosmos 1536 3.6 22:25:42 50° N 22:25:42 50° N 22:28:42 10° N
Cosmos 1570 Rocket 4.5 22:19:38 10° NNW 22:24:45 49° WSW 22:25:09 47° WSW
CRYOSAT 2 4.2 22:19:54 10° N 22:24:47 88° NNW 22:24:47 88° NNW
USA 234 3.9 22:24:24 37° SW 22:25:04 38° SW 22:31:06 10° WNW
Cosmos 1066 Rocket 4.0 22:21:09 10° N 22:26:54 80° ENE 22:27:21 74° SE
Cosmos 2208 Rocket 4.3 22:24:29 10° NNW 22:29:36 52° WSW 22:29:46 52° WSW
Meteor 1-13 Rocket 4.4 22:25:50 10° NNW 22:31:14 56° W 22:31:53 52° WSW
Cosmos 1816 Rocket 4.4 22:24:57 10° N 22:31:15 79° W 22:32:18 63° SSW
Iridium 4 Rocket 4.3 22:35:07 32° W 22:35:20 32° W 22:39:09 10° NNW
Cosmos 44 4.0 22:30:54 10° NW 22:35:07 43° WSW 22:35:07 43° WSW
ATLAS 3B R/B 2.5 22:35:32 54° SSW 22:37:12 86° SE 22:43:53 10° NE
Cosmos 44 Rocket 4.4 22:33:22 10° NNW 22:38:02 38° NE 22:38:57 35° ENE
Meteor 1-23 Rocket 4.1 22:32:34 10° NNW 22:38:26 87° W 22:38:56 76° S
MOS 1-B Rocket 3.9 22:33:17 10° N 22:38:55 70° WNW 22:40:00 56° SW
Cosmos 1486 Rocket 4.3 22:40:49 53° ENE 22:40:49 53° ENE 22:45:13 10° NNE
Geosat 4.3 22:45:49 57° W 22:45:49 57° W 22:50:29 10° NW
Cosmos 1242 Rocket 4.3 22:44:10 10° NNW 22:46:17 32° NNW 22:46:17 32° NNW
Tsikada Rocket 4.1 22:42:54 10° NNW 22:49:12 67° W 22:50:09 58° SW
Lacrosse 4 Rocket 2.6 22:53:53 37° NE 22:53:53 37° NE 22:56:31 10° NNE
SL-16 R/B 3.8 22:53:32 10° NW 22:57:42 21° W 22:58:01 21° WSW
Nimbus 7 Rocket 4.2 22:57:06 10° NNE 23:03:01 85° ESE 23:03:21 79° SSE
Cosmos 2322 3.6 22:57:26 10° NNW 23:03:02 77° WSW 23:03:02 77° WSW
Cosmos 1833 4.4 23:03:14 59° WSW 23:04:00 66° WNW 23:09:40 10° NNE
Cosmos 2219 Rocket 2.1 22:59:41 10° NNW 23:05:25 79° ENE 23:05:36 78° E
ALOS 2 3.3 23:09:38 51° NW 23:09:38 51° NW 23:13:03 10° NNW
CENTAUR R/B 4.0 23:05:30 10° W 23:11:17 36° NNW 23:18:03 10° NE
Cosmos 489 Rocket 4.3 23:05:20 10° NNW 23:11:41 86° WSW 23:12:10 77° S
NOSS 0 Rocket 4.3 23:10:32 10° NNW 23:16:43 58° ENE 23:18:00 48° E
Cosmos 2333 4.4 23:11:55 10° NNW 23:17:23 60° W 23:17:23 60° W
Cosmos 968 Rocket 3.5 23:18:43 73° NNW 23:18:43 73° NNW 23:23:30 10° NNE
Cosmos 2322 Rocket 4.0 23:14:43 10° WNW 23:18:26 18° W 23:18:26 18° W
Lacrosse 5 4.2 23:19:44 10° W 23:20:25 12° W 23:20:25 12° W
SL-16 R/B 4.3 23:21:19 10° N 23:25:35 21° NE 23:29:50 10° E
Meteor 2-11 Rocket 4.4 23:25:28 66° WSW 23:26:03 70° WNW 23:32:09 10° N
Cosmos 2360 Rocket 3.6 23:26:52 10° NW 23:30:55 25° W 23:30:55 25° W
Helios 1B rocket 4.5 23:29:07 10° NE 23:31:05 21° ENE 23:31:05 21° ENE
Cosmos 1354 Rocket 4.0 23:37:57 78° NNE 23:37:57 78° NNE 23:42:57 10° NNE
COSMOS 2428 2.8 23:34:54 10° NNW 23:40:11 63° W 23:40:11 63° W
Timation 2 Rocket 4.1 23:42:46 58° ESE 23:42:46 58° ESE 23:48:33 10° NE
Cosmos 1782 Rocket 4.4 23:45:29 48° NNW 23:45:29 48° NNW 23:48:44 10° N
Meteor 2-9 Rocket 4.1 23:45:25 84° WNW 23:45:25 84° WNW 23:51:09 10° N
Cosmos 2297 Rocket 3.2 23:46:33 35° E 23:46:33 35° E 23:51:06 10° NE
Cosmos 1980 3.8 23:44:04 10° NNW 23:49:45 68° ENE 23:50:12 65° E
Cosmos 2219 3.8 23:53:03 45° E 23:53:03 45° E 23:57:56 10° NE
